Probability
13 5 0 1 0 0 0 0 0 0 0 0 0 0 0 0 0 0 0 0 0 0 0 0 0 0 0 0 0 1 2 3 2 1 0 0 1 4 7 6 4 3 1 1 1 1 0 0 1
6 3 1 1 0 0 0 0 0 0 0 0 0 0 0 0 0 0 0 0 0 0 0 0 0 0 0 0 0 1 2 2 1 1 0 0 2 5 6 5 5 4 2 2 2 2 1 0 1
1 1 1 1 0 0 0 0 0 0 0 0 0 0 0 0 0 0 0 0 0 0 0 0 0 0 0 0 0 0 1 1 1 1 1 1 2 4 4 4 5 4 3 3 2 2 1 0 1
0 0 0 0 0 0 0 0 0 0 0 0 0 0 0 0 0 0 0 0 0 0 0 0 1 1 2 1 0 0 1 1 2 2 1 1 1 2 2 2 3 4 5 5 3 2 2 1 0
0 0 0 0 0 0 0 0 0 1 1 1 0 0 0 0 0 0 0 0 0 0 0 0 1 2 3 2 1 0 1 3 3 3 2 2 2 1 1 2 2 4 5 5 4 3 2 1 0
0 0 0 0 0 0 0 0 1 2 2 1 0 0 0 0 0 0 0 0 0 0 0 0 1 2 3 3 1 1 1 3 3 3 3 4 3 1 1 2 2 2 3 4 3 2 2 1 0
0 0 0 0 0 0 0 0 1 2 2 1 0 0 0 0 0 0 0 0 0 0 0 0 0 1 2 3 3 2 2 3 3 2 2 3 3 1 2 2 1 1 2 2 2 2 2 1 0
0 0 0 0 0 0 0 0 0 1 1 0 0 0 0 0 0 0 0 0 0 0 0 0 0 0 1 2 3 3 3 3 3 2 1 1 1 1 1 2 1 1 1 1 1 1 1 0 0
0 0 0 0 0 0 0 0 0 0 0 0 0 0 0 0 0 0 0 0 0 0 0 0 0 0 0 1 2 2 2 2 2 1 1 1 0 1 1 2 2 1 1 0 0 0 0 0 0
0 0 0 0 0 0 0 0 0 0 0 0 0 0 0 1 0 0 0 0 0 0 0 0 0 0 0 0 1 1 1 1 0 0 0 0 0 0 1 2 2 1 0 0 1 1 0 0 0
1 0 0 0 0 0 0 0 0 0 0 0 0 0 1 1 0 0 0 0 0 0 0 0 0 0 0 0 0 0 0 0 0 0 0 0 0 0 1 2 2 1 0 0 1 1 0 0 0
1 0 0 0 0 0 0 0 0 0 0 0 0 1 1 1 0 0 0 0 0 0 0 0 0 0 0 0 0 0 0 0 0 0 0 0 0 0 0 1 1 1 0 0 1 1 0 0 0
1 0 0 0 0 0 0 0 0 0 0 0 0 2 2 1 0 0 0 0 1 1 1 0 0 0 0 0 0 0 0 0 0 0 0 0 0 0 0 0 0 0 0 0 0 0 0 0 0
0 0 0 0 0 0 0 0 0 0 0 0 0 1 1 1 0 0 0 1 2 2 1 1 0 0 0 0 0 0 0 0 0 0 0 0 0 0 0 0 0 0 0 0 0 0 0 0 0
0 0 0 0 0 0 0 0 0 0 0 0 0 0 0 0 0 0 1 2 2 1 2 2 2 1 1 1 0 0 0 0 0 0 0 0 0 0 0 0 0 0 0 0 0 0 0 0 0
0 0 0 0 0 0 0 0 0 0 0 0 0 0 0 0 0 0 1 2 1 0 1 3 4 4 3 2 1 0 0 0 0 0 0 0 0 0 0 0 0 0 0 0 0 0 0 0 0
0 0 0 0 0 0 0 0 0 0 0 0 0 0 0 0 0 0 1 1 1 0 1 3 4 4 4 3 2 0 0 0 0 0 0 0 0 0 0 0 0 0 0 0 0 0 0 0 0
0 0 0 0 0 0 0 0 0 0 0 0 0 0 0 0 0 0 0 0 0 1 3 4 3 3 3 3 2 1 1 0 0 0 0 0 0 0 0 0 0 0 0 0 0 0 0 0 0
0 0 0 0 0 0 0 0 0 0 0 0 0 0 0 1 1 1 0 1 1 3 5 5 4 3 3 3 3 2 1 0 0 0 1 0 0 0 0 0 0 0 0 0 0 0 0 0 0
0 0 0 0 0 0 0 0 0 0 0 0 0 0 1 1 2 1 1 2 4 6 6 6 5 4 3 3 3 3 1 0 0 0 0 0 0 0 0 0 0 0 0 0 0 0 0 0 0
0 0 0 0 0 0 0 0 0 0 0 0 0 0 0 0 1 1 2 4 7 8 7 6 6 5 4 3 3 3 1 0 0 0 0 0 0 0 0 0 0 0 0 0 0 0 0 0 0
0 0 0 0 0 0 0 0 0 0 0 0 0 0 0 0 0 1 3 6 8 9 8 6 5 4 4 4 3 3 2 0 0 0 0 0 0 0 0 0 0 0 0 0 0 0 0 0 0
0 0 0 0 0 0 0 0 0 0 0 0 0 0 0 0 0 1 4 7 8 7 7 5 3 3 4 4 3 2 1 0 0 0 0 0 0 0 0 0 0 0 0 0 0 0 0 0 0
1 1 1 0 0 0 0 0 0 0 0 0 0 0 0 0 1 1 4 7 7 6 5 4 3 3 3 3 3 1 1 0 0 0 0 0 0 0 0 0 0 0 0 0 0 0 1 1 1
2 2 1 0 0 0 0 0 0 0 1 1 1 1 1 2 3 3 5 8 8 6 4 4 3 3 2 2 2 2 1 1 1 1 1 1 1 1 0 0 0 0 0 1 1 2 3 4 4
1 2 1 0 0 0 0 0 0 1 2 2 2 2 3 4 5 4 5 7 8 7 7 6 4 4 4 3 3 3 2 1 2 3 4 4 3 2 1 0 0 0 1 3 3 3 4 5 5
1 1 0 0 0 0 1 1 1 1 3 3 4 4 5 6 6 6 6 6 7 8 8 7 5 6 7 7 6 5 3 2 3 5 7 6 5 4 3 1 0 0 1 2 3 2 2 3 4
1 0 0 1 0 0 1 1 1 2 3 4 5 6 7 8 8 7 6 6 8 9 10 8 8 9 11 10 9 8 7 6 6 8 9 8 7 6 4 1 0 0 0 1 1 1 1 1 2
1 0 0 0 0 0 0 1 1 2 3 5 6 7 9 10 8 6 5 6 8 10 11 10 10 12 13 12 11 12 13 13 11 11 11 9 7 6 5 2 0 0 1 1 1 2 2 3 3
0 0 0 0 0 0 0 1 2 2 4 6 6 8 11 11 7 5 5 7 8 10 12 11 11 13 15 13 12 14 17 18 16 13 11 9 7 6 5 3 1 1 2 2 2 3 3 3 3
Wind_Speed
9 7 3 1 5 6 3 3 1 3 3 3 6 7 6 4 2 2 0 3 2 1 1 1 5 6 7 8 9 9 9 10 11 12 12 13 13 14 15 16 16 16 17 17 17 17 18 17 17
5 5 1 3 6 4 3 2 2 2 4 5 6 6 6 4 3 4 1 2 3 1 1 2 6 7 7 8 9 10 10 11 11 11 12 13 13 13 14 15 16 16 16 17 17 17 17 16 16
5 3 2 5 4 3 2 1 4 5 3 3 4 5 5 3 2 3 2 4 3 2 1 2 6 7 7 8 9 9 10 10 10 11 11 12 12 13 14 14 15 16 16 16 16 16 16 16 15
3 2 4 5 3 1 3 4 5 5 4 5 5 5 4 2 2 3 5 5 4 2 1 2 6 7 7 7 8 9 9 9 10 10 11 11 12 12 13 14 14 15 15 15 15 15 15 14 14
2 4 6 4 3 2 3 5 3 3 3 4 5 5 3 4 5 7 6 5 4 2 1 2 6 6 7 7 8 9 9 9 9 10 11 11 12 12 12 13 13 14 14 14 14 14 14 13 13
3 5 5 2 2 2 3 3 3 5 5 5 5 4 2 2 5 5 5 4 3 2 1 2 4 5 6 7 8 8 9 10 10 11 11 12 11 11 11 12 12 13 13 13 13 13 12 12 11
4 5 3 3 2 1 2 3 3 5 5 3 4 5 2 1 3 5 4 4 3 2 2 2 2 3 5 6 7 7 8 9 9 9 10 11 11 10 10 10 11 12 11 12 11 11 11 10 9
4 5 3 2 3 2 4 3 3 4 4 4 4 6 4 4 5 6 5 4 3 2 2 2 2 3 3 3 5 7 7 8 8 8 9 10 10 9 9 8 9 10 10 10 10 9 9 9 8
3 5 2 4 5 4 5 4 3 3 5 3 3 4 5 10 9 6 4 2 1 1 1 1 2 2 2 2 2 4 5 6 6 5 8 7 4 4 5 6 8 8 8 8 8 8 8 7 6
4 3 6 5 6 6 6 5 5 4 4 3 5 6 10 11 9 7 5 4 3 2 2 0 1 1 1 1 2 2 3 3 4 3 4 4 3 3 4 5 6 7 7 7 7 7 6 5 3
3 4 3 2 5 7 7 5 4 8 3 5 8 10 11 10 8 7 6 5 4 3 2 2 1 1 1 1 2 1 2 2 2 2 3 3 3 2 2 2 2 3 4 3 4 3 2 2 2
3 1 3 4 5 7 7 6 5 4 5 7 10 12 11 11 9 8 7 5 3 3 3 2 2 2 1 1 1 1 1 1 1 1 2 2 1 1 1 1 1 1 1 2 2 1 1 1 1
2 1 2 5 6 7 7 5 5 2 5 9 10 10 10 10 8 6 5 4 4 4 4 3 3 3 2 1 1 1 1 0 0 1 1 2 1 1 1 0 0 0 1 1 1 1 1 1 1
2 5 5 5 6 4 6 3 4 3 8 10 10 9 9 9 8 6 5 5 5 5 4 3 4 3 3 2 1 1 1 1 0 0 0 1 1 1 1 0 0 0 0 1 1 1 1 0 0
5 7 6 3 3 3 7 2 2 5 9 9 9 8 8 7 7 7 7 7 6 5 5 4 4 3 3 2 2 1 1 1 1 1 0 1 2 2 1 1 0 1 1 1 1 1 1 1 1
5 6 2 2 2 4 6 3 3 8 10 8 8 8 7 6 7 7 6 6 5 5 5 4 5 4 3 2 2 1 1 1 1 1 1 1 2 2 2 1 1 1 1 1 1 1 1 1 1
4 2 2 2 3 4 4 4 4 8 10 8 8 7 7 6 6 6 6 6 6 6 6 5 4 5 4 2 1 1 1 1 1 1 1 1 1 2 2 1 1 1 1 1 1 1 1 1 1
4 3 3 5 4 5 4 4 4 8 10 9 7 7 7 7 9 7 6 6 5 5 5 5 4 4 3 2 1 1 1 0 0 1 1 1 1 2 2 1 1 1 1 1 1 1 1 1 2
6 5 4 4 4 5 5 5 6 8 8 8 7 7 8 8 6 5 6 6 5 5 5 5 5 4 3 2 2 1 1 0 0 0 1 1 1 2 2 1 1 1 1 1 2 2 2 1 2
4 3 2 1 2 4 2 3 3 7 10 10 10 10 9 7 5 6 6 6 7 6 6 5 5 5 4 3 2 2 1 1 1 0 0 1 1 2 2 2 1 1 1 1 2 2 2 1 2
3 5 5 3 3 3 3 3 2 4 5 6 7 8 8 10 10 9 8 8 7 7 8 7 6 6 5 4 2 2 2 1 1 1 0 0 1 1 1 2 1 1 2 2 2 2 3 2 1
4 5 6 6 5 0 2 2 5 3 4 7 9 8 9 10 9 9 9 9 9 9 7 6 6 6 5 5 4 4 3 2 2 1 1 0 1 1 1 2 1 1 1 1 2 2 2 3 2
4 3 5 5 5 2 2 2 7 1 5 9 10 10 10 10 11 11 12 11 10 8 7 6 6 6 5 5 5 4 3 2 1 1 1 0 0 0 1 1 1 1 1 1 1 1 2 2 2
6 8 8 6 5 1 2 3 7 5 8 7 8 9 10 10 10 10 10 8 7 7 7 6 6 6 5 6 5 6 5 4 3 2 2 1 0 0 1 1 1 1 1 1 1 2 2 2 2
6 7 4 4 3 4 2 3 9 8 7 9 9 9 9 8 9 9 10 10 9 9 9 8 8 7 6 6 6 6 6 5 5 4 3 2 1 1 2 1 1 1 1 1 1 1 1 2 2
4 9 9 6 5 4 1 5 9 6 5 6 6 6 5 6 7 9 11 11 10 10 10 9 9 8 7 7 6 5 5 4 4 4 4 4 3 2 2 2 2 2 1 1 1 1 1 1 2
6 3 6 8 3 1 4 6 9 2 2 3 4 4 5 7 8 9 9 9 10 10 10 10 10 8 8 8 6 5 5 5 5 4 4 3 2 2 3 2 2 2 1 2 2 1 1 1 1
5 9 6 7 7 3 4 4 5 5 5 4 4 5 6 5 6 7 7 8 8 8 8 8 9 8 7 7 6 6 6 6 5 4 4 4 3 2 3 3 2 2 1 1 1 1 0 1 0
4 5 6 5 6 7 3 8 8 9 7 7 7 5 5 5 6 6 6 7 7 6 7 7 7 6 6 6 6 5 5 5 4 4 4 4 3 3 4 3 3 2 2 1 1 1 1 1 0
4 7 9 7 4 5 5 9 5 6 6 6 6 5 4 5 5 5 5 6 6 7 6 7 7 7 6 6 5 5 5 5 5 4 4 4 4 4 4 4 3 3 2 2 2 1 1 1 1
Wind_Direction
147 143 149 113 54 48 34 2 81 76 56 53 75 79 84 67 87 133 277 123 118 90 351 88 83 75 68 65 65 69 76 86 91 94 95 96 97 99 100 104 107 107 108 109 109 111 111 113 114
146 156 154 63 73 57 357 358 71 79 130 123 81 71 68 59 57 105 115 129 111 102 52 94 88 78 75 72 69 71 78 87 90 94 97 98 99 101 103 104 106 109 110 110 109 109 111 114 114
164 184 83 67 83 137 147 108 113 106 112 86 79 64 71 83 113 143 157 130 106 89 50 103 91 81 77 76 74 72 79 87 91 95 97 98 100 102 105 106 107 108 109 111 109 109 109 111 113
152 61 51 63 60 187 154 149 134 120 71 54 82 69 64 84 145 135 127 122 110 88 50 96 93 86 81 80 77 75 81 91 93 97 97 99 102 104 106 108 107 108 109 111 111 110 109 110 112
84 77 58 48 28 39 109 142 136 106 82 70 81 80 45 16 90 111 121 123 122 102 53 87 97 92 86 81 80 80 78 85 94 99 99 101 103 105 107 108 108 108 108 110 111 111 110 112 114
66 68 73 68 48 56 100 126 108 94 95 90 87 86 47 59 100 121 119 115 116 108 69 72 100 97 90 85 83 85 84 79 88 97 100 102 103 104 107 109 110 110 109 112 113 113 112 111 111
100 87 107 123 99 92 144 121 116 119 109 110 110 93 77 101 114 113 101 95 86 81 71 50 50 73 89 89 85 86 88 85 83 94 101 103 103 103 105 108 110 111 111 114 116 116 113 110 110
123 96 87 117 140 171 139 110 110 118 108 120 114 129 168 179 125 101 88 82 72 62 55 54 46 43 43 60 90 89 90 88 88 91 104 105 102 104 106 106 112 114 115 115 116 115 113 111 112
94 79 154 186 171 169 143 124 129 97 111 116 104 136 152 135 126 111 97 83 80 139 37 46 61 56 48 42 81 85 91 87 83 80 95 91 70 71 95 106 109 109 112 115 115 113 111 108 109
92 128 208 193 169 150 146 137 141 115 118 95 81 90 119 133 143 148 156 168 188 206 211 180 116 100 76 61 63 47 57 58 57 54 68 78 73 63 77 91 105 106 107 109 111 112 107 97 94
132 173 192 146 146 134 132 135 125 129 164 175 151 142 144 150 159 171 179 184 196 198 195 181 181 151 116 47 78 58 50 52 55 61 74 76 70 57 52 53 64 67 83 80 88 87 83 96 109
124 199 144 140 134 133 140 134 122 161 194 159 150 148 154 164 176 184 187 190 184 181 201 190 183 173 176 116 99 98 75 58 50 51 85 91 88 73 63 51 44 50 67 79 82 90 82 97 119
103 89 92 120 123 124 116 123 132 153 126 129 138 148 164 175 184 191 189 180 177 189 199 191 181 181 181 156 162 127 125 103 61 47 94 127 125 123 109 88 68 81 90 103 106 102 96 87 104
105 78 80 92 107 116 116 109 108 153 135 138 152 166 178 184 183 181 185 185 187 194 194 182 175 180 173 173 183 165 160 159 124 72 144 146 145 147 141 126 96 98 108 103 112 132 115 80 113
87 79 58 62 96 117 110 95 189 162 145 154 170 178 185 192 184 189 192 189 188 187 182 177 179 173 172 183 193 184 181 163 169 217 202 162 157 162 159 155 174 193 142 123 104 103 112 129 107
61 74 96 251 124 131 125 200 210 157 157 173 183 185 191 201 199 198 189 187 183 174 174 185 180 160 166 180 180 176 166 167 190 190 187 179 172 167 164 166 206 172 134 139 148 140 100 85 101
46 127 210 235 180 149 156 212 194 165 167 184 192 193 194 201 209 203 190 185 180 176 173 178 173 157 167 175 155 150 130 170 185 165 167 191 182 167 158 169 194 151 138 153 172 138 139 133 120
201 191 207 216 202 156 181 222 187 176 180 191 197 199 198 203 211 200 189 182 175 174 170 173 164 158 153 138 102 87 74 81 133 151 185 185 187 168 155 164 161 141 137 140 143 141 115 132 127
169 173 215 234 188 163 199 217 199 183 187 196 202 205 209 213 211 189 182 174 167 170 171 175 169 169 148 136 141 137 176 208 235 198 184 183 184 164 154 165 144 143 157 174 153 140 124 123 124
161 176 216 301 142 155 198 253 215 192 200 198 201 206 210 212 201 189 183 178 180 183 183 183 184 178 172 165 154 152 150 166 185 185 104 160 166 175 172 165 163 156 153 151 157 155 150 165 159
205 188 190 170 90 61 86 329 243 230 214 211 211 208 207 204 201 195 190 190 186 191 192 193 191 185 179 164 130 104 77 52 47 49 36 261 165 156 149 159 161 168 171 176 185 178 172 182 193
245 219 168 146 122 174 121 252 277 235 228 220 219 213 214 210 198 194 193 192 194 200 194 190 186 185 180 166 162 161 164 185 206 186 175 149 141 151 153 155 159 166 167 184 205 183 181 173 188
202 105 112 114 115 79 43 161 282 254 240 238 225 217 216 210 200 196 198 197 197 193 186 185 179 186 182 175 174 170 179 190 171 146 143 112 38 87 160 158 155 172 184 201 199 184 186 182 186
124 76 60 54 73 97 227 171 271 230 220 234 226 218 215 209 203 199 195 189 190 184 179 177 178 191 184 181 181 183 188 186 175 179 180 185 187 249 197 167 162 174 185 202 208 199 195 198 195
102 95 51 15 19 250 243 196 249 245 223 217 221 222 217 206 198 193 187 188 189 184 182 180 182 194 188 186 191 194 194 188 191 193 193 192 194 212 220 193 184 185 194 195 190 191 207 208 207
167 140 154 179 204 257 267 230 253 257 242 227 222 221 213 200 195 195 193 191 189 188 185 183 187 195 189 192 199 199 194 190 197 195 190 194 202 210 200 187 183 179 172 161 155 176 222 208 214
137 166 154 127 131 126 273 280 299 287 250 231 225 216 215 201 191 192 191 190 187 186 188 188 190 195 194 195 195 196 192 194 198 192 188 195 196 187 174 168 162 152 144 151 148 163 218 208 218
140 142 108 122 141 206 275 265 245 249 230 224 225 225 221 201 189 188 189 189 186 185 186 186 190 194 196 193 195 198 196 197 195 184 188 187 184 167 158 157 153 150 150 143 141 159 199 158 228
116 108 110 114 145 154 216 262 227 215 210 209 223 222 215 199 194 193 190 187 177 170 176 182 184 183 186 193 192 188 189 189 183 185 191 183 171 166 165 162 156 155 158 150 143 159 150 142 125
159 161 146 149 187 167 170 260 264 210 210 201 210 213 203 192 192 190 182 172 168 170 177 182 183 182 191 191 185 191 185 179 183 189 186 172 168 169 165 158 160 169 167 153 147 162 144 144 168